Change the Weather History Date:

Thursday, March 6, 2014

  Actual Average Record
Temperature  
Mean Temperature 38 °F 44 °F  
Max Temperature 47 °F 56 °F 87 °F (1925)
Min Temperature 29 °F 31 °F 2 °F (1943)
Degree Days  
Heating Degree Days 27 21  
Month to date heating degree days 264 133  
Since 1 July heating degree days 4215 3662  
Cooling Degree Days 0 0  
Month to date cooling degree days 0 0  
Year to date cooling degree days 0 0  
Moisture  
Dew Point 33 °F    
Average Humidity 86    
Maximum Humidity 100    
Minimum Humidity 71    
Precipitation  
Precipitation 0.00 in 0.07 in 0.25 in (1990)
Month to date precipitation 0.32 0.39  
Year to date precipitation 1.27 2.14  
Snow  
Snow 0.00 in 0.00 in - ()
Month to date snowfall 0.0 0.0  
Since 1 July snowfall 23.0 8.4  
Snow Depth 0.00 in    
Sea Level Pressure  
Sea Level Pressure 30.12 in    
Wind  
Wind Speed 8 mph (South)    
Max Wind Speed 17 mph    
Max Gust Speed 23 mph    
T = Trace of Precipitation, MM = Missing Value Source: NWS Daily Summary

Daily Weather History Graph

Daily Weather History Graph

Search for Another Location

Airport or City:

Trip Planner

Search our weather history database for the weather conditions in past years. The results will help you decide how hot, cold, wet, or windy it might be!

Date:

Astronomy

Mar. 06, 2014 Rise Set
Actual Time 6:58 AM CST 6:33 PM CST
Civil Twilight 6:32 AM CST 6:59 PM CST
Nautical Twilight 6:02 AM CST 7:29 PM CST
Astronomical Twilight 5:31 AM CST 7:59 PM CST
Moon 10:14 AM CST (3/6) No Moon Set
Length of Visible Light 12h 26m
Length of Day
11h 34m
Waxing Crescent, 32% of the Moon is Illuminated
Mar 6
Waxing Crescent
Mar 8
First Quarter
Mar 16
Full
Mar 23
Last Quarter
Mar 30
New

Hourly Weather History & Observations

Time (CST) Temp. Windchill Dew Point Humidity Pressure Visibility Wind Dir Wind Speed Gust Speed Precip Events Conditions
12:56 AM 30.0 °F - 27.0 °F 88% 30.28 in - Calm Calm - N/A   Unknown
1:56 AM 30.0 °F - 27.0 °F 88% 30.28 in - Calm Calm - N/A   Unknown
2:56 AM 30.0 °F - 28.0 °F 92% 30.27 in - Calm Calm - N/A   Unknown
3:56 AM 30.0 °F - 28.0 °F 92% 30.25 in - Calm Calm - N/A   Unknown
4:56 AM 30.9 °F - 28.9 °F 92% 30.25 in - Calm Calm - N/A   Unknown
5:56 AM 30.9 °F 26.2 °F 28.9 °F 92% 30.25 in - West 4.6 mph - N/A   Unknown
6:56 AM 32.0 °F 25.6 °F 30.0 °F 92% 30.24 in - WSW 6.9 mph - N/A   Unknown
7:56 AM 30.9 °F 25.2 °F 30.0 °F 96% 30.24 in - WSW 5.8 mph - N/A   Unknown
8:56 AM 32.0 °F 25.6 °F 30.9 °F 96% 30.22 in - SSW 6.9 mph - N/A   Unknown
9:56 AM 32.0 °F 25.6 °F 30.9 °F 96% 30.22 in - SSW 6.9 mph - N/A   Unknown
10:56 AM 34.0 °F 27.2 °F 32.0 °F 92% 30.20 in - South 8.1 mph - N/A   Unknown
11:56 AM 36.0 °F 28.5 °F 33.1 °F 89% 30.19 in - South 10.4 mph - N/A   Unknown
12:56 PM 37.9 °F 29.2 °F 34.0 °F 86% 30.14 in - South 15.0 mph 19.6 mph N/A   Unknown
1:56 PM 39.9 °F 31.8 °F 35.1 °F 83% 30.10 in - South 15.0 mph - N/A   Unknown
2:56 PM 43.0 °F 37.2 °F 36.0 °F 76% 30.06 in - SSE 10.4 mph 20.7 mph N/A   Unknown
3:56 PM 46.0 °F 40.2 °F 37.9 °F 73% 30.02 in - SSE 12.7 mph 23.0 mph N/A   Unknown
4:56 PM 46.9 °F - 37.9 °F 71% 29.99 in - SSE 15.0 mph 23.0 mph N/A   Unknown
5:56 PM 45.0 °F 40.1 °F 37.9 °F 76% 29.97 in - SSE 9.2 mph 17.3 mph N/A   Unknown
6:56 PM 41.0 °F 35.2 °F 37.0 °F 86% 29.98 in - SSE 9.2 mph - N/A   Unknown
7:56 PM 39.9 °F 33.9 °F 36.0 °F 86% 29.99 in - South 9.2 mph - N/A   Unknown
8:56 PM 39.9 °F 33.4 °F 37.0 °F 89% 29.96 in - SSE 10.4 mph - N/A   Unknown
9:56 PM 39.9 °F 33.9 °F 37.0 °F 89% 29.96 in - SSE 9.2 mph - N/A   Unknown
10:56 PM 37.9 °F 32.7 °F 36.0 °F 93% 29.93 in - SSE 6.9 mph - N/A   Unknown
11:56 PM 37.9 °F 31.5 °F 35.1 °F 89% 29.91 in - SE 9.2 mph - N/A   Unknown